Regional Weather Roundup
Issued by NWS Midland/Odessa, TX

Home | Current Version | Previous Version | Text Only | Print | Product List | Glossary On
Versions: 1 2 3 4 5 6 7 8 9 10 11 12 13 14 15 16 17 18 19 20 21 22 23 24 25 26 27 28 29 30 31 32 33 34 35 36 37 38 39 40 41 42 43 44 45 46 47 48 49 50
000
ASUS44 KMAF 290910
RWRMAF
MIDLAND AREA WEATHER ROUNDUP
NATIONAL WEATHER SERVICE MIDLAND TX
400 AM CDT MON AUG 29 2016

...IN SOUTHWEST TEXAS AND SOUTHEAST NEW MEXICO...

CITY           SKY/WX    TMP DP  RH WIND       PRES   REMARKS
ALPINE         CLOUDY    63  58  84 CALM      30.23R
ANDREWS        NOT AVBL
ARTESIA        CLOUDY    66  64  94 SE8       30.18F
BIG SPRING     MOCLDY    73  69  89 CALM      30.11F
CARLSBAD       CLOUDY    65  62  90 E10       30.15F
DRYDEN           N/A     71  69  93 N7        30.05R
FORT STOCKTON  CLOUDY    69  63  81 NE8       30.12R
GUAD PASS      CLOUDY    62  61  96 NE28      30.23S
HOBBS          CLOUDY    63  63 100 NE9       30.17F
MARFA          CLOUDY   N/A N/A N/A CALM      30.21S
MIDLAND AIRPK  MOCLDY    71  66  86 NW6       30.12S
MIDLAND INTL   MOCLDY    69  65  86 NW12      30.10F
ODESSA         LGT RAIN  66  64  93 N20G26    30.13S
PECOS          CLOUDY    69  61  77 N12       30.11S
PRESIDIO       NOT AVBL
SEMINOLE       RAIN      64  64  98 N10       30.18S
SNYDER           N/A     70  67  88 CALM      30.10S
WINK           CLOUDY    67  62  84 NE14      30.11F
$$
...OTHER STATIONS IN TEXAS...

CITY           SKY/WX    TMP DP  RH WIND       PRES   REMARKS
ABILENE        CLEAR     69  67  93 SE5       30.08R
AMARILLO       CLOUDY    64  62  93 E10       30.20R
AUSTIN         PTCLDY    73  72  96 N5        29.97R
BROWNSVILLE    CLEAR     78  75  90 CALM      29.88F
CORPUS CHRISTI CLOUDY    78  75  90 N10       29.89F
DALLAS FTW     PTCLDY    75  70  84 E5        30.01F
DEL RIO        MOCLDY    75  73  93 CALM      29.97S
EL PASO        CLOUDY    72  60  66 NW6       30.12S
HOUSTON INT    MOCLDY    76  72  87 NE7       29.93F
LUBBOCK        CLOUDY    67  63  87 W13       30.15F
SAN ANGELO     MOCLDY    73  68  84 CALM      30.05S
SAN ANTONIO    MOCLDY    73  70  90 N5        29.98S
WACO           CLEAR     72  71  97 CALM      30.00R
WICHITA FALLS  NOT AVBL
$$
...OTHER LOCATIONS IN NEW MEXICO...

CITY           SKY/WX    TMP DP  RH WIND       PRES   REMARKS
ALAMAGORDO     CLEAR     64  55  72 NW7       30.14S
ALBUQUERQUE    CLOUDY    63  44  50 NE7       30.24S
CANNON AFB     CLOUDY    63  63 100 S6        30.20R
CLOVIS         CLOUDY    63  57  82 S9        30.19R
HOLLOMAN AFB   CLEAR     63  56  79 NW2       30.12S
ROSWELL        PTCLDY    65  62  90 S7        30.18S
RUIDOSO          N/A     54  50  87 SE5       30.35S
SANTA FE       CLOUDY    57  43  59 NE3       30.30R
TRUTH OR CONSE CLEAR     63  47  55 NW8       30.17F
TUCUMCARI      CLOUDY    64  59  83 CALM      30.19R
$$




USA.gov is the U.S. government's official web portal to all federal, state and local government web resources and services.